| time (UTC) | temp F | wind direction | speed MPH | gust MPH | rain 1hr in | rain 24hr in | rain mn in | humidity % | barometer mb |
| 20260506042517 | 46 | 322 | 0.0 | 3.0 | 0.00 | 0.00 | 0.00 | 82 | 1012.8 |
| 20260506042016 | 46 | 21 | 0.0 | 3.0 | 0.00 | 0.00 | 0.00 | 82 | 1012.8 |
| 20260506041531 | 46 | 50 | 1.0 | 4.0 | 0.00 | 0.00 | 0.00 | 81 | 1012.8 |
| 20260506041014 | 46 | 76 | 0.0 | 6.0 | 0.00 | 0.00 | 0.00 | 82 | 1012.8 |
| 20260506040517 | 46 | 355 | 0.0 | 6.0 | 0.00 | 0.00 | 0.00 | 81 | 1012.8 |
| 20260506040013 | 46 | 5 | 1.0 | 3.0 | 0.00 | 0.00 | 0.00 | 82 | 1012.8 |
| 20260506035516 | 46 | 37 | 0.0 | 3.0 | 0.00 | 0.00 | 0.00 | 83 | 1012.8 |
| 20260506035012 | 46 | 20 | 0.0 | 3.0 | 0.00 | 0.00 | 0.00 | 83 | 1012.7 |
| 20260506034511 | 47 | 344 | 0.0 | 2.0 | 0.00 | 0.00 | 0.00 | 83 | 1012.8 |
| 20260506034013 | 47 | 24 | 0.0 | 3.0 | 0.00 | 0.00 | 0.00 | 83 | 1012.7 |
| 20260506033515 | 47 | 13 | 0.0 | 3.0 | 0.00 | 0.00 | 0.00 | 83 | 1012.7 |
| 20260506033010 | 47 | 329 | 0.0 | 5.0 | 0.00 | 0.00 | 0.00 | 83 | 1012.7 |
| 20260506032509 | 47 | 341 | 1.0 | 5.0 | 0.00 | 0.00 | 0.00 | 83 | 1012.7 |
| 20260506032011 | 47 | 51 | 0.0 | 2.0 | 0.00 | 0.00 | 0.00 | 83 | 1012.7 |
| 20260506031508 | 47 | 345 | 0.0 | 2.0 | 0.00 | 0.00 | 0.00 | 83 | 1012.7 |
| 20260506031009 | 47 | 9 | 0.0 | 2.0 | 0.00 | 0.00 | 0.00 | 82 | 1012.7 |
| 20260506030509 | 47 | 37 | 0.0 | 2.0 | 0.00 | 0.00 | 0.00 | 83 | 1012.7 |
| 20260506030006 | 47 | 23 | 0.0 | 3.0 | 0.00 | 0.00 | 0.00 | 83 | 1012.7 |
| 20260506025509 | 47 | 41 | 0.0 | 3.0 | 0.00 | 0.00 | 0.00 | 83 | 1012.7 |
| 20260506025007 | 48 | 351 | 0.0 | 3.0 | 0.00 | 0.00 | 0.00 | 83 | 1012.7 |
| 20260506024506 | 48 | 38 | 0.0 | 2.0 | 0.00 | 0.00 | 0.00 | 83 | 1012.6 |
| 20260506024005 | 48 | 329 | 0.0 | 2.0 | 0.00 | 0.00 | 0.00 | 83 | 1012.7 |
| 20260506023505 | 48 | 336 | 0.0 | 2.0 | 0.00 | 0.00 | 0.00 | 84 | 1012.7 |
| 20260506023004 | 48 | 9 | 0.0 | 2.0 | 0.00 | 0.00 | 0.00 | 84 | 1012.7 |
| 20260506022506 | 48 | 25 | 0.0 | 2.0 | 0.00 | 0.00 | 0.00 | 83 | 1012.7 |
| 20260506022004 | 48 | 347 | 0.0 | 3.0 | 0.00 | 0.00 | 0.00 | 83 | 1012.7 |
| 20260506021503 | 48 | 39 | 0.0 | 5.0 | 0.00 | 0.00 | 0.00 | 83 | 1012.9 |
| 20260506021002 | 48 | 49 | 0.0 | 4.0 | 0.00 | 0.00 | 0.00 | 83 | 1012.7 |
| 20260506020506 | 48 | 37 | 0.0 | 2.0 | 0.00 | 0.00 | 0.00 | 83 | 1012.8 |
| 20260506020002 | 48 | 350 | 0.0 | 0.0 | 0.00 | 0.00 | 0.00 | 83 | 1012.9 |
| 20260506015502 | 48 | 355 | 0.0 | 3.0 | 0.00 | 0.00 | 0.00 | 83 | 1012.9 |
| 20260506015005 | 48 | 57 | 0.0 | 3.0 | 0.00 | 0.00 | 0.00 | 83 | 1012.9 |
| 20260506014502 | 48 | 29 | 0.0 | 2.0 | 0.00 | 0.00 | 0.00 | 83 | 1012.8 |
| 20260506014001 | 47 | 360 | 0.0 | 3.0 | 0.00 | 0.00 | 0.00 | 83 | 1012.9 |
| 20260506013501 | 48 | 38 | 0.0 | 3.0 | 0.00 | 0.00 | 0.00 | 83 | 1012.8 |
| 20260506013001 | 48 | 19 | 0.0 | 3.0 | 0.00 | 0.00 | 0.00 | 82 | 1012.8 |
| 20260506012603 | 48 | 9 | 0.0 | 3.0 | 0.00 | 0.00 | 0.00 | 82 | 1012.7 |
| 20260506012058 | 48 | 30 | 1.0 | 5.0 | 0.00 | 0.00 | 0.00 | 81 | 1012.8 |
| 20260506011607 | 48 | 13 | 0.0 | 5.0 | 0.00 | 0.00 | 0.00 | 81 | 1012.8 |
| 20260506011058 | 48 | 55 | 2.0 | 5.0 | 0.00 | 0.00 | 0.00 | 81 | 1012.8 |
| 20260506010557 | 48 | 40 | 1.0 | 5.0 | 0.00 | 0.00 | 0.00 | 81 | 1012.9 |
| 20260506010057 | 48 | 15 | 2.0 | 5.0 | 0.00 | 0.00 | 0.00 | 80 | 1012.9 |
| 20260506005556 | 49 | 24 | 1.0 | 5.0 | 0.00 | 0.00 | 0.00 | 80 | 1012.9 |
| 20260506005056 | 49 | 336 | 1.0 | 5.0 | 0.00 | 0.00 | 0.00 | 80 | 1012.9 |
| 20260506004559 | 49 | 31 | 2.0 | 4.0 | 0.00 | 0.00 | 0.00 | 79 | 1013.0 |
| 20260506004054 | 49 | 15 | 1.0 | 4.0 | 0.00 | 0.00 | 0.00 | 79 | 1013.0 |
| 20260506003553 | 49 | 51 | 0.0 | 5.0 | 0.00 | 0.00 | 0.00 | 78 | 1013.0 |
| 20260506003053 | 49 | 34 | 1.0 | 6.0 | 0.00 | 0.00 | 0.00 | 78 | 1013.0 |
| 20260506002552 | 50 | 33 | 2.0 | 6.0 | 0.00 | 0.00 | 0.00 | 77 | 1013.0 |
| 20260506002051 | 50 | 39 | 1.0 | 6.0 | 0.00 | 0.00 | 0.00 | 77 | 1012.9 |
| 20260506001556 | 50 | 10 | 1.0 | 6.0 | 0.00 | 0.00 | 0.00 | 76 | 1012.9 |
| 20260506001050 | 50 | 49 | 2.0 | 8.0 | 0.00 | 0.00 | 0.00 | 76 | 1012.8 |
| 20260506000550 | 50 | 346 | 1.0 | 9.0 | 0.00 | 0.00 | 0.00 | 76 | 1012.9 |
| 20260506000056 | 50 | 9 | 2.0 | 6.0 | 0.00 | 0.00 | 0.00 | 75 | 1012.9 |
| 20260505235547 | 50 | 46 | 1.0 | 8.0 | 0.00 | 0.00 | 0.00 | 76 | 1012.8 |
| 20260505235047 | 51 | 337 | 2.0 | 8.0 | 0.00 | 0.00 | 0.00 | 75 | 1012.9 |
| 20260505234547 | 51 | 18 | 1.0 | 10.0 | 0.00 | 0.00 | 0.00 | 75 | 1012.9 |
| 20260505234044 | 51 | 17 | 3.0 | 10.0 | 0.00 | 0.00 | 0.00 | 75 | 1012.9 |
| 20260505233548 | 51 | 53 | 3.0 | 8.0 | 0.00 | 0.00 | 0.00 | 75 | 1012.8 |
| 20260505233050 | 51 | 57 | 2.0 | 6.0 | 0.00 | 0.00 | 0.00 | 75 | 1012.8 |
| 20260505232543 | 51 | 82 | 2.0 | 6.0 | 0.00 | 0.00 | 0.00 | 75 | 1012.8 |
| 20260505232045 | 51 | 42 | 2.0 | 6.0 | 0.00 | 0.00 | 0.00 | 75 | 1012.8 |
| 20260505231545 | 51 | 63 | 2.0 | 9.0 | 0.00 | 0.00 | 0.00 | 75 | 1012.8 |
| 20260505231041 | 52 | 11 | 3.0 | 9.0 | 0.00 | 0.00 | 0.00 | 75 | 1012.8 |
| 20260505230540 | 52 | 20 | 2.0 | 9.0 | 0.00 | 0.00 | 0.00 | 75 | 1012.8 |
| 20260505230107 | 52 | 37 | 2.0 | 6.0 | 0.00 | 0.00 | 0.00 | 75 | 1012.8 |
| 20260505225539 | 52 | 74 | 1.0 | 6.0 | 0.00 | 0.00 | 0.00 | 74 | 1012.8 |
| 20260505225039 | 52 | 111 | 2.0 | 10.0 | 0.00 | 0.00 | 0.00 | 74 | 1012.8 |
| 20260505224539 | 52 | 13 | 1.0 | 10.0 | 0.00 | 0.00 | 0.00 | 74 | 1012.7 |
| 20260505224037 | 52 | 34 | 1.0 | 8.0 | 0.00 | 0.00 | 0.00 | 74 | 1012.7 |
| 20260505223539 | 52 | 327 | 0.0 | 6.0 | 0.00 | 0.00 | 0.00 | 73 | 1012.7 |
| 20260505223042 | 53 | 44 | 1.0 | 8.0 | 0.00 | 0.00 | 0.00 | 73 | 1012.8 |
| 20260505222538 | 53 | 355 | 2.0 | 8.0 | 0.00 | 0.00 | 0.00 | 73 | 1012.7 |
| 20260505222043 | 53 | 348 | 2.0 | 6.0 | 0.00 | 0.00 | 0.00 | 73 | 1012.7 |
| 20260505221544 | 53 | 17 | 1.0 | 5.0 | 0.00 | 0.00 | 0.00 | 73 | 1012.7 |
| 20260505221037 | 53 | 9 | 1.0 | 6.0 | 0.00 | 0.00 | 0.00 | 73 | 1012.7 |
| 20260505220537 | 53 | 34 | 2.0 | 6.0 | 0.00 | 0.00 | 0.00 | 72 | 1012.7 |
| 20260505220050 | 53 | 26 | 1.0 | 5.0 | 0.00 | 0.00 | 0.00 | 72 | 1012.6 |
| 20260505215537 | 53 | 348 | 1.0 | 5.0 | 0.00 | 0.00 | 0.00 | 73 | 1012.5 |
| 20260505215036 | 53 | 37 | 1.0 | 6.0 | 0.00 | 0.00 | 0.00 | 73 | 1012.5 |
| 20260505214537 | 54 | 94 | 2.0 | 6.0 | 0.00 | 0.00 | 0.00 | 72 | 1012.6 |
| 20260505214035 | 54 | 28 | 2.0 | 6.0 | 0.00 | 0.00 | 0.00 | 73 | 1012.6 |
| 20260505213535 | 54 | 15 | 1.0 | 6.0 | 0.00 | 0.00 | 0.00 | 73 | 1012.6 |
| 20260505213036 | 54 | 17 | 1.0 | 6.0 | 0.00 | 0.00 | 0.00 | 73 | 1012.6 |
| 20260505212535 | 54 | 68 | 2.0 | 5.0 | 0.00 | 0.00 | 0.00 | 73 | 1012.5 |
| 20260505212035 | 54 | 20 | 1.0 | 8.0 | 0.00 | 0.00 | 0.00 | 74 | 1012.5 |
| 20260505211535 | 54 | 52 | 1.0 | 4.0 | 0.00 | 0.00 | 0.00 | 75 | 1012.5 |
| 20260505211035 | 54 | 19 | 1.0 | 4.0 | 0.00 | 0.00 | 0.00 | 74 | 1012.5 |
| 20260505210535 | 53 | 17 | 0.0 | 3.0 | 0.00 | 0.00 | 0.00 | 74 | 1012.5 |
| 20260505210037 | 53 | 63 | 1.0 | 3.0 | 0.00 | 0.00 | 0.00 | 74 | 1012.4 |
| 20260505205535 | 54 | 30 | 0.0 | 2.0 | 0.00 | 0.00 | 0.00 | 73 | 1012.4 |
| 20260505205035 | 54 | 349 | 0.0 | 3.0 | 0.00 | 0.00 | 0.00 | 72 | 1012.4 |
| 20260505204536 | 54 | 53 | 0.0 | 3.0 | 0.00 | 0.00 | 0.00 | 72 | 1012.3 |
| 20260505204034 | 54 | 346 | 0.0 | 3.0 | 0.00 | 0.00 | 0.00 | 70 | 1012.3 |
| 20260505203535 | 54 | 360 | 1.0 | 3.0 | 0.00 | 0.00 | 0.00 | 70 | 1012.3 |
| 20260505203033 | 54 | 22 | 1.0 | 3.0 | 0.00 | 0.00 | 0.00 | 70 | 1012.3 |
| 20260505202534 | 54 | 342 | 0.0 | 4.0 | 0.00 | 0.00 | 0.00 | 70 | 1012.2 |
| 20260505202033 | 54 | 9 | 1.0 | 5.0 | 0.00 | 0.00 | 0.00 | 70 | 1012.2 |
| 20260505201533 | 54 | 26 | 1.0 | 5.0 | 0.00 | 0.00 | 0.00 | 70 | 1012.2 |
| 20260505201035 | 54 | 340 | 1.0 | 6.0 | 0.00 | 0.00 | 0.00 | 70 | 1012.1 |
| 20260505200532 | 55 | 20 | 1.0 | 6.0 | 0.00 | 0.00 | 0.00 | 70 | 1012.1 |
| 20260505200039 | 55 | 30 | 1.0 | 6.0 | 0.00 | 0.00 | 0.00 | 70 | 1012.1 |
| 20260505195533 | 55 | 355 | 2.0 | 7.0 | 0.00 | 0.00 | 0.00 | 70 | 1012.1 |
| 20260505195132 | 55 | 346 | 1.0 | 4.0 | 0.00 | 0.00 | 0.00 | 70 | 1012.0 |
| 20260505194531 | 55 | 355 | 0.0 | 4.0 | 0.00 | 0.00 | 0.00 | 70 | 1012.0 |
| 20260505194031 | 55 | 331 | 2.0 | 4.0 | 0.00 | 0.00 | 0.00 | 70 | 1011.9 |
| 20260505193530 | 55 | 360 | 1.0 | 6.0 | 0.00 | 0.00 | 0.00 | 70 | 1011.9 |
| 20260505193034 | 55 | 341 | 2.0 | 6.0 | 0.00 | 0.00 | 0.00 | 70 | 1011.8 |
| 20260505192535 | 55 | 322 | 1.0 | 5.0 | 0.00 | 0.00 | 0.00 | 70 | 1011.8 |
| 20260505192032 | 55 | 5 | 2.0 | 5.0 | 0.00 | 0.00 | 0.00 | 70 | 1011.7 |
| 20260505191537 | 55 | 348 | 1.0 | 4.0 | 0.00 | 0.00 | 0.00 | 70 | 1011.7 |
| 20260505191029 | 55 | 355 | 1.0 | 4.0 | 0.00 | 0.00 | 0.00 | 70 | 1011.7 |
| 20260505190529 | 56 | 355 | 1.0 | 4.0 | 0.00 | 0.00 | 0.00 | 70 | 1011.6 |
| 20260505190029 | 56 | 16 | 1.0 | 4.0 | 0.00 | 0.00 | 0.00 | 70 | 1011.6 |
| 20260505185529 | 56 | 16 | 0.0 | 3.0 | 0.00 | 0.00 | 0.00 | 70 | 1011.5 |
| 20260505185032 | 56 | 342 | 1.0 | 4.0 | 0.00 | 0.00 | 0.00 | 70 | 1011.5 |
| 20260505184530 | 56 | 340 | 1.0 | 4.0 | 0.00 | 0.00 | 0.00 | 71 | 1011.5 |
| 20260505184029 | 56 | 345 | 0.0 | 4.0 | 0.00 | 0.00 | 0.00 | 70 | 1011.5 |
| 20260505183530 | 56 | 355 | 1.0 | 3.0 | 0.00 | 0.00 | 0.00 | 70 | 1011.5 |
| 20260505183035 | 56 | 5 | 0.0 | 4.0 | 0.00 | 0.00 | 0.00 | 71 | 1011.5 |
| 20260505182528 | 56 | 17 | 0.0 | 4.0 | 0.00 | 0.00 | 0.00 | 70 | 1011.4 |
| 20260505182029 | 56 | 342 | 0.0 | 2.0 | 0.00 | 0.00 | 0.00 | 70 | 1011.5 |
| 20260505181528 | 56 | 37 | 0.0 | 3.0 | 0.00 | 0.00 | 0.00 | 69 | 1011.5 |
| 20260505181027 | 56 | 360 | 0.0 | 4.0 | 0.00 | 0.00 | 0.00 | 69 | 1011.5 |
| 20260505180527 | 56 | 27 | 0.0 | 3.0 | 0.00 | 0.00 | 0.00 | 69 | 1011.4 |
| 20260505180029 | 56 | 325 | 0.0 | 2.0 | 0.00 | 0.00 | 0.00 | 69 | 1011.5 |
| 20260505175527 | 56 | 335 | 0.0 | 3.0 | 0.00 | 0.00 | 0.00 | 69 | 1011.5 |
| 20260505175027 | 56 | 340 | 1.0 | 3.0 | 0.00 | 0.00 | 0.00 | 69 | 1011.4 |
| 20260505174526 | 56 | 5 | 0.0 | 3.0 | 0.00 | 0.00 | 0.00 | 69 | 1011.4 |
| 20260505174026 | 57 | 355 | 1.0 | 3.0 | 0.00 | 0.00 | 0.00 | 70 | 1011.5 |
| 20260505173524 | 57 | 355 | 1.0 | 3.0 | 0.00 | 0.00 | 0.00 | 69 | 1011.4 |
| 20260505173024 | 57 | 5 | 1.0 | 3.0 | 0.00 | 0.00 | 0.00 | 69 | 1011.5 |
| 20260505172524 | 57 | 11 | 0.0 | 3.0 | 0.00 | 0.00 | 0.00 | 70 | 1011.5 |
| 20260505172025 | 57 | 360 | 0.0 | 2.0 | 0.00 | 0.00 | 0.00 | 70 | 1011.5 |
| 20260505171524 | 57 | 9 | 0.0 | 2.0 | 0.00 | 0.00 | 0.00 | 70 | 1011.5 |
| 20260505171026 | 57 | 355 | 0.0 | 2.0 | 0.00 | 0.00 | 0.00 | 70 | 1011.5 |
| 20260505170523 | 58 | 38 | 0.0 | 2.0 | 0.00 | 0.00 | 0.00 | 70 | 1011.6 |
| 20260505170030 | 58 | 346 | 0.0 | 4.0 | 0.00 | 0.00 | 0.00 | 69 | 1011.5 |
| 20260505165523 | 58 | 44 | 0.0 | 4.0 | 0.00 | 0.00 | 0.00 | 70 | 1011.5 |
| 20260505165025 | 58 | 28 | 0.0 | 4.0 | 0.00 | 0.00 | 0.00 | 70 | 1011.5 |
| 20260505164523 | 58 | 49 | 0.0 | 4.0 | 0.00 | 0.00 | 0.00 | 69 | 1011.6 |
| 20260505164023 | 58 | 36 | 0.0 | 3.0 | 0.00 | 0.00 | 0.00 | 68 | 1011.6 |
| 20260505163522 | 58 | 19 | 0.0 | 3.0 | 0.00 | 0.00 | 0.00 | 69 | 1011.6 |
| 20260505163022 | 58 | 54 | 0.0 | 2.0 | 0.00 | 0.00 | 0.00 | 67 | 1011.5 |
| 20260505162528 | 59 | 24 | 0.0 | 2.0 | 0.00 | 0.00 | 0.00 | 67 | 1011.6 |
| 20260505162022 | 59 | 36 | 0.0 | 3.0 | 0.00 | 0.00 | 0.00 | 68 | 1011.7 |
| 20260505161536 | 59 | 24 | 0.0 | 3.0 | 0.00 | 0.00 | 0.00 | 67 | 1011.7 |
| 20260505161022 | 59 | 36 | 1.0 | 4.0 | 0.00 | 0.00 | 0.00 | 68 | 1011.7 |
| 20260505160526 | 59 | 331 | 0.0 | 4.0 | 0.00 | 0.00 | 0.00 | 68 | 1011.7 |
| 20260505153019 | 59 | 18 | 1.0 | 4.0 | 0.00 | 0.00 | 0.00 | 69 | 1011.8 |
| 20260505152518 | 59 | 335 | 1.0 | 4.0 | 0.00 | 0.00 | 0.00 | 69 | 1011.7 |
| 20260505152020 | 58 | 315 | 0.0 | 3.0 | 0.00 | 0.00 | 0.00 | 69 | 1011.7 |
| 20260505151518 | 58 | 355 | 0.0 | 2.0 | 0.00 | 0.00 | 0.00 | 71 | 1011.8 |
| 20260505151017 | 58 | 346 | 0.0 | 4.0 | 0.00 | 0.00 | 0.00 | 71 | 1011.8 |
| 20260505150517 | 58 | 11 | 0.0 | 4.0 | 0.00 | 0.00 | 0.00 | 70 | 1011.8 |
| 20260505140513 | 59 | 345 | 0.0 | 2.0 | 0.00 | 0.00 | 0.00 | 69 | 1012.0 |
| 20260505125013 | 59 | 355 | 0.0 | 3.0 | 0.00 | 0.00 | 0.00 | 70 | 1012.4 |
| 20260505124512 | 59 | 5 | 0.0 | 2.0 | 0.00 | 0.00 | 0.00 | 70 | 1012.4 |
| 20260505124007 | 59 | 5 | 1.0 | 3.0 | 0.00 | 0.00 | 0.00 | 69 | 1012.4 |
| 20260505123505 | 59 | 28 | 0.0 | 3.0 | 0.00 | 0.00 | 0.00 | 70 | 1012.4 |
| 20260505123005 | 59 | 330 | 0.0 | 4.0 | 0.00 | 0.00 | 0.00 | 69 | 1012.4 |
| 20260505122506 | 59 | 349 | 2.0 | 4.0 | 0.00 | 0.00 | 0.00 | 68 | 1012.4 |
| 20260505122005 | 59 | 11 | 1.0 | 4.0 | 0.00 | 0.00 | 0.00 | 68 | 1012.4 |
| 20260505121514 | 58 | 21 | 1.0 | 6.0 | 0.00 | 0.00 | 0.00 | 70 | 1012.4 |
| 20260505121005 | 58 | 54 | 1.0 | 6.0 | 0.00 | 0.00 | 0.00 | 70 | 1012.4 |
| 20260505120505 | 58 | 20 | 1.0 | 6.0 | 0.00 | 0.00 | 0.00 | 70 | 1012.4 |
| 20260505120004 | 58 | 22 | 1.0 | 9.0 | 0.00 | 0.00 | 0.00 | 69 | 1012.3 |
| 20260505115502 | 59 | 340 | 1.0 | 9.0 | 0.00 | 0.00 | 0.00 | 68 | 1012.4 |
| 20260505115003 | 59 | 9 | 2.0 | 7.0 | 0.00 | 0.00 | 0.00 | 70 | 1012.4 |
| 20260505114503 | 58 | 38 | 1.0 | 5.0 | 0.00 | 0.00 | 0.00 | 71 | 1012.4 |
| 20260505114003 | 59 | 40 | 1.0 | 5.0 | 0.00 | 0.00 | 0.00 | 69 | 1012.4 |
| 20260505113502 | 60 | 329 | 1.0 | 4.0 | 0.00 | 0.00 | 0.00 | 69 | 1012.4 |
| 20260505113117 | 60 | 246 | 0.0 | 3.0 | 0.00 | 0.00 | 0.00 | 68 | 1012.4 |
| 20260505112559 | 61 | 355 | 1.0 | 3.0 | 0.00 | 0.00 | 0.00 | 69 | 1012.4 |
| 20260505112058 | 58 | 34 | 0.0 | 4.0 | 0.00 | 0.00 | 0.00 | 75 | 1012.5 |
| 20260505111558 | 56 | 316 | 1.0 | 8.0 | 0.00 | 0.00 | 0.00 | 74 | 1012.6 |
| 20260505111058 | 56 | 149 | 1.0 | 8.0 | 0.00 | 0.00 | 0.00 | 74 | 1012.7 |
| 20260505110600 | 57 | 40 | 1.0 | 4.0 | 0.00 | 0.00 | 0.00 | 72 | 1012.7 |
| 20260505110116 | 58 | 19 | 0.0 | 4.0 | 0.00 | 0.00 | 0.00 | 72 | 1012.7 |
| 20260505102051 | 57 | 39 | 1.0 | 6.0 | 0.00 | 0.00 | 0.00 | 75 | 1013.0 |
| 20260505101552 | 57 | 360 | 2.0 | 7.0 | 0.00 | 0.00 | 0.00 | 73 | 1013.0 |
| 20260505101050 | 57 | 41 | 1.0 | 5.0 | 0.00 | 0.00 | 0.00 | 74 | 1013.0 |
| 20260505100551 | 57 | 35 | 1.0 | 5.0 | 0.00 | 0.00 | 0.00 | 77 | 1013.1 |
| 20260505100050 | 56 | 5 | 1.0 | 5.0 | 0.00 | 0.00 | 0.00 | 78 | 1013.0 |
| 20260505095550 | 55 | 68 | 1.0 | 9.0 | 0.00 | 0.00 | 0.00 | 78 | 1013.0 |
| 20260505095049 | 55 | 360 | 1.0 | 9.0 | 0.00 | 0.00 | 0.00 | 78 | 1013.0 |
| 20260505094556 | 56 | 333 | 2.0 | 5.0 | 0.00 | 0.00 | 0.00 | 77 | 1013.1 |
| 20260505094048 | 57 | 340 | 0.0 | 4.0 | 0.00 | 0.00 | 0.00 | 76 | 1013.1 |
| 20260505093548 | 57 | 5 | 0.0 | 4.0 | 0.00 | 0.00 | 0.00 | 76 | 1013.1 |
| 20260505093053 | 57 | 9 | 1.0 | 4.0 | 0.00 | 0.00 | 0.00 | 78 | 1013.2 |
| 20260505092545 | 56 | 23 | 1.0 | 5.0 | 0.00 | 0.00 | 0.00 | 81 | 1013.2 |
| 20260505092044 | 54 | 51 | 1.0 | 5.0 | 0.00 | 0.00 | 0.00 | 81 | 1013.2 |
| 20260505091546 | 54 | 360 | 1.0 | 3.0 | 0.00 | 0.00 | 0.00 | 81 | 1013.1 |
| 20260505091044 | 54 | 80 | 0.0 | 4.0 | 0.00 | 0.00 | 0.00 | 82 | 1013.1 |
| 20260505090544 | 54 | 17 | 0.0 | 4.0 | 0.00 | 0.00 | 0.00 | 82 | 1013.1 |
| 20260505090046 | 54 | 22 | 0.0 | 4.0 | 0.00 | 0.00 | 0.00 | 81 | 1013.1 |
| 20260505085544 | 54 | 344 | 0.0 | 5.0 | 0.00 | 0.00 | 0.00 | 80 | 1013.0 |
| 20260505085043 | 55 | 24 | 1.0 | 5.0 | 0.00 | 0.00 | 0.00 | 78 | 1013.1 |
| 20260505084552 | 56 | 343 | 1.0 | 5.0 | 0.00 | 0.00 | 0.00 | 79 | 1013.2 |
| 20260505084042 | 55 | 55 | 1.0 | 4.0 | 0.00 | 0.00 | 0.00 | 79 | 1013.2 |
| 20260505083540 | 55 | 35 | 1.0 | 4.0 | 0.00 | 0.00 | 0.00 | 82 | 1013.2 |
| 20260505083051 | 54 | 34 | 0.0 | 4.0 | 0.00 | 0.00 | 0.00 | 81 | 1013.3 |
| 20260505082538 | 54 | 32 | 0.0 | 4.0 | 0.00 | 0.00 | 0.00 | 81 | 1013.4 |
| 20260505082038 | 54 | 40 | 1.0 | 5.0 | 0.00 | 0.00 | 0.00 | 81 | 1013.3 |
| 20260505081538 | 54 | 19 | 1.0 | 5.0 | 0.00 | 0.00 | 0.00 | 81 | 1013.4 |
| 20260505081038 | 54 | 59 | 0.0 | 4.0 | 0.00 | 0.00 | 0.00 | 81 | 1013.4 |
| 20260505080539 | 54 | 5 | 2.0 | 5.0 | 0.00 | 0.00 | 0.00 | 81 | 1013.3 |
| 20260505080046 | 54 | 13 | 1.0 | 6.0 | 0.00 | 0.00 | 0.00 | 82 | 1013.3 |
| 20260505075535 | 54 | 24 | 1.0 | 6.0 | 0.00 | 0.00 | 0.00 | 83 | 1013.2 |
| 20260505075035 | 54 | 315 | 3.0 | 6.0 | 0.00 | 0.00 | 0.00 | 83 | 1013.1 |
| 20260505074534 | 53 | 342 | 0.0 | 5.0 | 0.00 | 0.00 | 0.00 | 84 | 1013.3 |
| 20260505074033 | 53 | 13 | 1.0 | 5.0 | 0.00 | 0.00 | 0.00 | 84 | 1013.2 |
| 20260505073532 | 53 | 57 | 0.0 | 5.0 | 0.00 | 0.00 | 0.00 | 84 | 1013.2 |
| 20260505073035 | 53 | 340 | 0.0 | 3.0 | 0.00 | 0.00 | 0.00 | 85 | 1013.3 |
| 20260505072531 | 52 | 5 | 1.0 | 5.0 | 0.00 | 0.00 | 0.00 | 86 | 1013.4 |
| 20260505072031 | 52 | 63 | 1.0 | 5.0 | 0.00 | 0.00 | 0.00 | 86 | 1013.4 |
| 20260505071543 | 52 | 48 | 0.0 | 5.0 | 0.00 | 0.00 | 0.00 | 86 | 1013.4 |
| 20260505071032 | 52 | 19 | 2.0 | 5.0 | 0.00 | 0.00 | 0.00 | 86 | 1013.4 |
| 20260505070530 | 52 | 304 | 1.0 | 5.0 | 0.00 | 0.00 | 0.00 | 87 | 1013.4 |
| 20260505070029 | 52 | 53 | 0.0 | 4.0 | 0.00 | 0.00 | 0.00 | 87 | 1013.5 |
| 20260505065528 | 51 | 336 | 0.0 | 4.0 | 0.00 | 0.00 | 0.00 | 88 | 1013.5 |
| 20260505065026 | 51 | 324 | 1.0 | 4.0 | 0.00 | 0.00 | 0.00 | 88 | 1013.5 |
| 20260505064532 | 51 | 332 | 1.0 | 3.0 | 0.00 | 0.00 | 0.00 | 88 | 1013.5 |
| 20260505064027 | 51 | 334 | 1.0 | 4.0 | 0.00 | 0.00 | 0.00 | 89 | 1013.4 |
| 20260505063524 | 50 | 65 | 0.0 | 4.0 | 0.00 | 0.00 | 0.00 | 90 | 1013.4 |
| 20260505063023 | 50 | 17 | 0.0 | 2.0 | 0.00 | 0.00 | 0.00 | 91 | 1013.3 |
| 20260505062525 | 50 | 338 | 0.0 | 2.0 | 0.00 | 0.00 | 0.00 | 91 | 1013.3 |
| 20260505062021 | 49 | 9 | 0.0 | 0.0 | 0.00 | 0.00 | 0.00 | 91 | 1013.3 |
| 20260505061521 | 49 | 344 | 0.0 | 2.0 | 0.00 | 0.00 | 0.00 | 92 | 1013.3 |
| 20260505061020 | 49 | 334 | 0.0 | 2.0 | 0.00 | 0.00 | 0.00 | 92 | 1013.2 |
| 20260505060520 | 49 | 337 | 0.0 | 2.0 | 0.00 | 0.00 | 0.00 | 92 | 1013.3 |
| 20260505060027 | 48 | 346 | 0.0 | 3.0 | 0.00 | 0.00 | 0.00 | 92 | 1013.3 |
| 20260505055520 | 48 | 348 | 0.0 | 3.0 | 0.00 | 0.00 | 0.00 | 92 | 1013.3 |
| 20260505055017 | 48 | 17 | 0.0 | 3.0 | 0.00 | 0.00 | 0.00 | 93 | 1013.3 |
| 20260505054516 | 48 | 355 | 0.0 | 1.0 | 0.00 | 0.00 | 0.00 | 93 | 1013.3 |
| 20260505054015 | 47 | 360 | 0.0 | 2.0 | 0.00 | 0.00 | 0.00 | 93 | 1013.4 |
| 20260505053515 | 47 | 15 | 0.0 | 2.0 | 0.00 | 0.00 | 0.00 | 93 | 1013.4 |
| 20260505053014 | 47 | 30 | 0.0 | 2.0 | 0.00 | 0.00 | 0.00 | 92 | 1013.4 |
| 20260505052515 | 47 | 47 | 0.0 | 2.0 | 0.00 | 0.00 | 0.00 | 92 | 1013.3 |
| 20260505052012 | 47 | 5 | 0.0 | 2.0 | 0.00 | 0.00 | 0.00 | 92 | 1013.4 |
| 20260505051512 | 47 | 22 | 0.0 | 2.0 | 0.00 | 0.00 | 0.00 | 92 | 1013.4 |
| 20260505051013 | 47 | 325 | 0.0 | 4.0 | 0.00 | 0.00 | 0.00 | 92 | 1013.4 |
| 20260505050510 | 47 | 344 | 1.0 | 4.0 | 0.00 | 0.00 | 0.00 | 92 | 1013.4 |